Wind_Speed
22 22 22 21 20 19 20 20 22 22 23 23 23 22 22 22 22 21 21 22 22 22 22 21 22 22 23 23 23 24 25 25 26 26 25 23 21 21 21 19 18 20 21 20 19 21 20 19 19 19 19 19 19 20 19 17 17 17 18 18 16 16 17 16 15 12 11 11 11 11 11 11 11 11 11 10 11 11 11 10 9 10 10 10 9
21 21 20 20 19 20 20 22 23 24 23 22 22 22 22 21 21 20 20 21 22 21 21 21 21 22 23 23 24 24 24 26 26 25 23 21 21 22 21 20 20 20 20 19 19 20 21 20 20 19 18 18 18 19 18 17 18 18 18 17 16 16 16 16 14 12 11 10 11 11 11 12 12 12 12 12 13 13 12 11 11 10 10 9 9
20 20 20 19 19 21 22 23 25 25 24 23 22 22 21 20 20 20 20 20 21 21 21 22 22 23 23 23 24 25 24 26 25 23 22 20 21 22 20 20 21 21 20 20 21 22 21 20 20 19 18 18 19 19 19 18 19 18 17 17 16 16 16 15 14 13 11 9 11 12 12 13 13 12 13 14 14 13 13 13 12 11 10 11 11
21 20 20 20 21 22 24 25 26 26 25 24 23 21 20 20 19 19 20 20 21 21 22 22 22 23 24 24 25 26 25 26 25 23 21 20 20 20 19 20 22 23 22 22 23 23 21 20 19 18 18 18 20 20 19 18 19 18 17 17 17 16 15 15 14 13 11 11 12 13 12 13 13 13 13 14 14 13 14 14 13 12 12 13 13
21 20 20 21 22 24 25 25 25 25 25 25 23 21 19 19 19 19 20 21 22 22 22 22 23 23 24 24 26 27 27 27 27 24 21 19 19 18 17 18 20 21 22 22 22 22 20 20 19 18 17 18 20 21 20 19 19 18 17 16 16 16 15 14 14 14 13 12 13 12 12 13 13 13 13 13 14 13 14 14 13 13 13 14 14
20 19 20 22 24 25 25 23 23 24 24 24 23 21 19 18 18 19 21 22 22 23 23 23 23 23 24 25 26 28 28 28 29 28 25 22 20 18 17 17 17 18 21 21 20 20 20 20 19 18 17 17 19 21 20 19 19 17 16 16 16 16 16 16 16 15 14 13 12 12 13 12 12 13 13 14 14 14 14 14 13 13 14 14 14
20 20 21 23 25 25 24 21 20 21 21 21 21 20 19 18 19 20 21 22 22 23 23 24 24 24 24 25 26 28 29 29 29 30 29 27 24 22 20 19 16 15 17 19 19 20 20 21 20 18 17 17 18 20 20 19 19 17 17 16 16 17 17 17 17 15 13 12 12 13 14 13 13 13 13 14 14 14 14 15 15 14 14 13 12
20 21 22 24 25 25 24 21 19 19 19 19 19 19 19 19 19 20 21 22 22 23 24 25 26 26 25 25 26 27 29 30 30 30 30 29 27 25 23 21 18 16 14 15 18 20 20 22 22 20 19 18 17 19 20 20 19 18 18 17 16 18 18 17 16 15 13 13 12 13 14 14 14 14 13 14 14 14 15 15 15 15 15 14 13
20 21 22 24 25 25 24 22 20 19 19 18 18 18 18 19 19 20 21 22 23 24 25 26 27 27 27 26 26 27 28 30 31 31 30 28 27 26 25 23 20 18 15 13 16 19 21 22 23 22 22 20 17 17 19 20 20 18 18 17 17 18 17 17 16 14 13 14 13 13 13 13 14 14 14 15 15 15 15 15 16 16 16 16 16
21 21 23 24 26 26 25 24 21 19 18 18 17 17 17 18 19 21 22 24 25 25 26 27 28 28 28 28 28 28 29 30 30 30 29 28 26 25 24 25 22 19 17 15 14 17 20 22 23 23 23 22 20 19 20 20 20 19 18 18 18 18 17 17 17 14 14 15 14 13 14 15 14 14 15 16 16 15 15 15 16 16 16 17 17
22 23 24 25 26 27 26 25 22 20 18 16 16 17 18 19 20 22 24 26 27 27 27 27 27 28 29 29 29 29 30 30 30 30 29 28 27 25 23 24 24 20 18 17 16 16 18 21 23 24 24 23 22 22 22 22 21 20 19 18 19 18 18 18 17 15 15 15 14 13 15 16 15 15 16 17 16 15 15 15 16 15 16 16 16
24 24 24 25 26 27 27 25 23 20 18 16 17 18 19 20 21 24 26 28 29 29 28 27 27 27 28 29 30 31 31 32 32 32 31 29 28 27 24 24 24 23 20 19 18 17 18 19 20 22 24 24 24 23 22 22 22 20 19 19 19 18 18 17 17 16 15 15 14 14 16 17 16 16 17 17 16 15 15 15 15 15 15 16 16
25 24 24 25 26 27 27 25 23 20 19 18 18 19 20 22 24 25 27 28 29 29 29 28 28 27 28 30 31 32 33 33 34 34 33 31 30 29 27 25 25 24 23 22 19 18 19 18 18 20 21 22 23 23 21 21 21 20 19 19 18 18 17 17 17 16 16 16 16 16 17 17 17 16 17 17 17 16 16 15 15 14 14 16 16
26 25 24 25 26 26 25 24 23 22 20 20 20 21 22 24 25 26 28 29 29 30 30 29 29 29 30 30 32 32 33 34 35 36 36 33 31 31 29 27 27 26 26 24 20 18 19 19 19 19 20 21 22 22 20 19 20 20 20 19 18 18 18 17 18 17 18 18 18 17 17 17 18 17 18 19 18 17 17 16 15 14 14 15 16
26 24 24 25 26 26 24 21 20 20 20 20 21 23 24 25 26 27 29 30 30 31 31 30 30 31 32 32 33 33 33 33 35 37 37 34 31 32 31 29 28 28 28 26 23 20 20 20 19 20 21 22 23 23 20 18 19 20 20 20 20 19 18 18 19 19 20 20 19 18 18 19 19 19 19 19 18 18 17 16 15 14 14 15 16
26 24 25 27 27 25 23 20 18 18 19 21 22 24 25 26 27 29 30 31 32 32 31 31 32 33 34 35 35 35 34 34 34 37 37 34 32 34 33 30 29 29 28 27 25 22 21 21 21 21 22 23 23 23 21 19 19 20 20 20 19 19 19 19 21 22 22 21 19 18 19 20 20 19 19 19 18 18 17 16 14 13 14 15 16
27 25 26 26 26 25 24 22 20 19 21 21 23 24 25 27 29 31 32 32 33 33 33 34 35 36 37 38 38 38 37 35 35 37 36 33 32 34 34 31 29 29 28 27 26 24 24 24 23 23 24 24 25 25 24 22 21 21 21 21 21 21 21 22 23 24 22 20 19 18 19 20 20 20 19 18 18 18 17 16 14 13 14 15 17
28 26 25 26 25 25 24 23 22 21 21 22 23 25 26 28 30 32 33 33 34 34 35 37 38 39 40 40 40 39 38 37 37 37 35 32 32 34 34 31 29 29 30 27 26 26 26 26 26 25 26 26 27 27 27 26 25 24 22 22 22 22 22 23 24 24 22 19 18 18 19 20 20 19 19 18 18 18 17 16 15 14 15 16 18
29 27 26 26 25 24 23 22 21 21 21 22 24 25 27 29 31 32 34 34 35 37 38 39 39 39 39 39 39 38 38 38 38 38 35 33 33 33 32 30 28 29 30 28 26 26 27 27 26 26 26 27 28 28 28 28 26 25 24 23 23 24 23 24 24 23 21 19 18 18 19 20 20 19 18 18 18 18 17 17 16 15 16 17 18
30 28 27 26 24 23 22 21 21 21 22 23 24 25 27 29 31 33 34 35 37 38 38 37 36 36 36 37 37 37 37 36 36 35 33 31 32 31 31 30 29 29 31 30 27 26 26 27 27 27 27 28 30 29 28 28 26 25 24 24 24 25 25 24 23 23 22 20 19 19 19 20 19 18 18 18 18 18 18 17 16 16 17 18 18
30 29 28 26 23 22 21 20 20 21 22 23 24 25 27 29 32 33 35 36 37 37 35 33 31 31 32 33 35 35 35 33 33 32 30 29 30 29 30 30 28 29 30 30 28 26 26 26 27 27 28 28 29 29 28 28 28 27 26 26 25 26 26 25 24 24 23 21 20 20 19 19 19 18 18 18 18 19 19 18 17 16 17 18 18
29 28 27 24 22 21 20 20 20 20 21 22 23 25 27 30 32 33 32 32 32 31 29 27 26 27 28 30 33 34 32 29 29 28 27 26 27 28 30 31 30 30 31 30 28 26 26 27 27 27 26 26 27 28 28 28 28 27 27 26 26 25 25 25 25 24 23 21 20 20 19 19 19 18 18 18 19 19 19 18 17 17 17 18 18
28 26 24 22 21 20 20 19 20 20 21 22 23 25 27 29 29 29 27 27 26 24 23 22 23 24 25 27 28 27 25 24 22 21 22 24 25 27 30 31 31 30 31 30 27 25 25 26 26 25 24 24 25 26 28 27 26 26 25 25 25 24 23 24 24 23 23 21 20 19 18 18 18 18 18 19 20 20 19 18 17 17 18 19 19
25 23 21 22 21 20 20 20 20 21 21 21 22 23 24 25 25 25 25 24 23 21 20 20 21 21 23 24 23 19 16 18 18 17 19 22 25 27 29 30 29 28 29 29 27 26 25 25 25 24 24 23 23 24 26 26 26 26 25 24 24 23 23 23 24 24 23 21 20 19 18 18 18 18 19 20 20 20 19 18 18 19 19 20 20
22 21 21 22 21 20 20 20 21 21 20 20 21 21 22 23 24 24 23 22 21 19 19 19 19 20 21 22 21 17 11 11 13 14 16 18 22 24 26 25 25 25 25 25 25 26 26 25 24 23 23 23 22 23 24 24 25 24 23 23 24 22 21 23 25 25 23 21 20 19 19 18 18 18 20 21 21 20 20 20 20 20 20 20 20
22 21 21 21 21 21 21 21 21 21 20 20 20 21 22 23 23 22 21 20 19 19 19 19 19 19 20 19 20 18 13 8 8 10 11 12 15 19 21 22 23 24 24 23 24 25 26 25 24 23 22 21 22 23 24 23 23 23 23 23 22 20 20 23 26 25 23 21 20 20 19 19 19 19 20 21 21 21 21 21 20 20 20 21 21
22 21 21 22 21 22 22 22 21 21 21 21 21 22 23 23 22 21 19 18 19 19 19 19 19 18 18 18 18 17 16 12 8 7 8 8 10 13 17 21 23 24 24 23 23 24 25 25 24 23 21 22 23 25 24 23 22 22 23 23 22 22 24 26 26 24 22 22 21 21 20 20 20 21 21 22 21 21 22 22 22 22 22 22 23
22 21 21 22 22 23 23 22 22 21 21 21 22 23 23 22 21 20 18 18 19 18 17 16 17 17 17 17 17 17 16 14 12 9 8 9 10 13 16 20 22 24 24 23 23 24 24 24 24 24 24 24 26 27 26 24 22 20 21 23 23 24 26 26 25 23 22 22 22 22 22 22 22 22 22 22 22 22 23 23 23 23 23 24 24
22 21 21 22 22 23 22 22 22 22 22 22 23 23 22 21 20 19 18 17 17 16 14 14 15 15 15 16 16 16 16 15 13 12 11 11 11 13 16 19 21 22 22 24 25 24 24 24 24 24 25 25 25 26 26 24 23 23 24 26 25 25 24 24 24 23 23 23 23 23 24 23 23 22 23 23 23 23 23 24 24 24 24 25 25
21 21 21 22 21 21 21 21 22 22 22 22 23 23 21 20 18 18 16 16 15 14 13 13 14 14 15 15 15 15 15 15 14 13 13 12 13 14 16 19 20 21 23 26 27 26 25 25 24 23 24 24 24 25 26 26 27 26 27 28 26 24 24 24 24 24 23 24 24 24 25 25 25 25 25 26 26 25 25 25 26 26 26 26 26
22 22 22 22 21 20 21 21 22 22 22 22 22 22 20 19 17 16 16 15 14 14 14 14 14 14 14 14 15 15 15 14 14 14 13 13 13 14 16 18 20 22 25 28 28 27 27 27 25 23 24 24 24 25 25 26 26 26 26 27 26 25 24 24 24 24 24 24 25 26 26 26 26 26 27 27 27 28 28 28 27 26 26 26 26
23 24 23 23 23 22 22 22 21 21 22 22 22 21 20 19 17 16 16 15 15 15 15 14 14 13 13 13 14 15 15 14 14 14 14 14 14 14 15 17 19 21 24 26 27 27 27 27 25 24 24 25 25 25 25 26 26 25 25 26 26 26 24 24 24 24 25 26 26 26 26 26 26 26 27 28 28 29 29 28 27 26 25 25 26
23 25 25 25 24 24 24 24 22 22 22 23 22 21 20 19 18 17 17 16 15 14 14 14 13 13 13 13 13 15 15 14 14 14 15 14 14 14 15 16 17 19 22 23 24 25 26 25 25 25 25 24 24 25 25 26 26 25 25 26 26 26 25 24 25 26 27 27 27 27 27 27 27 28 29 29 29 29 28 26 25 25 25 26 26
24 26 27 27 26 25 25 25 24 24 24 24 23 22 20 20 18 17 17 17 15 14 14 14 13 13 13 12 12 14 14 14 14 15 16 16 15 14 14 15 16 18 20 22 22 24 24 24 24 24 24 22 23 25 26 25 26 26 26 26 25 25 26 26 27 28 28 28 28 29 29 29 30 30 30 29 28 27 26 25 25 26 26 27 28
24 24 25 27 27 26 26 26 25 25 26 26 25 23 21 20 19 18 18 18 16 15 14 13 13 12 12 12 12 13 14 14 14 15 16 17 18 15 12 12 13 15 17 20 21 22 22 23 24 24 24 25 25 26 26 27 27 27 28 27 25 25 26 27 28 29 29 29 29 30 29 29 29 28 28 27 26 25 26 26 27 27 28 29 30
23 22 23 25 25 25 25 26 26 26 27 27 26 24 22 20 19 18 18 18 17 16 15 14 14 13 12 12 13 13 14 14 14 16 16 17 19 18 14 12 12 14 15 17 19 20 21 22 24 25 25 24 25 27 28 28 29 29 29 28 27 27 27 27 28 28 29 29 29 28 27 26 26 26 26 26 26 26 27 28 28 29 30 30 31
23 22 22 23 24 23 24 25 26 27 28 27 26 25 22 20 20 19 18 17 17 17 16 15 15 15 14 14 13 14 14 14 14 16 17 17 18 18 17 16 14 14 16 17 18 20 22 23 24 25 25 23 24 29 30 29 30 30 30 29 28 28 28 28 28 28 28 27 27 26 26 25 26 26 25 26 27 27 28 29 30 30 30 31 31
24 23 23 24 24 24 23 23 25 26 27 27 27 25 23 21 21 20 19 18 17 17 17 17 17 17 16 16 15 15 15 16 15 15 16 18 18 18 19 19 17 14 15 20 21 21 24 27 27 28 27 26 29 33 32 31 30 30 30 30 29 28 28 28 28 27 27 27 26 26 26 27 26 26 27 28 29 29 29 30 29 30 30 30 31
25 25 25 25 25 25 24 23 24 26 27 28 27 26 24 23 22 21 20 18 17 17 17 18 18 18 18 18 18 17 17 17 17 16 16 17 18 18 18 20 19 16 14 18 23 24 25 27 28 29 29 29 33 35 34 32 31 30 30 30 29 28 26 25 26 27 27 27 28 27 28 28 28 28 28 29 30 30 30 29 29 31 31 31 32
27 26 26 26 26 26 26 25 25 25 27 28 28 26 25 24 24 23 21 19 18 17 17 17 18 19 19 19 20 20 20 19 19 18 18 17 17 17 17 18 19 19 17 16 19 24 26 27 27 28 30 31 34 36 35 33 31 30 31 30 30 28 24 22 26 29 28 29 29 29 29 29 30 30 30 30 32 32 31 31 31 32 33 34 35
27 27 26 27 27 28 28 28 27 27 28 29 29 27 26 25 25 24 22 21 20 19 19 19 20 20 21 21 22 22 23 23 22 21 20 20 19 18 17 17 17 19 19 18 17 19 23 27 28 29 31 33 35 35 34 32 31 30 31 31 30 27 22 21 25 28 28 27 28 28 29 29 31 32 32 32 34 33 32 32 33 34 35 37 38
27 27 28 29 29 29 30 30 30 29 28 29 29 27 26 25 25 24 23 23 22 22 22 22 23 23 23 23 24 24 24 25 24 23 23 22 21 20 19 17 16 17 18 19 18 17 18 20 23 25 27 31 33 31 29 29 29 29 30 30 29 27 24 24 27 29 31 31 30 29 28 29 31 32 33 33 34 33 32 32 32 33 35 37 38
26 29 31 31 30 29 29 30 32 31 30 29 29 28 26 25 25 24 24 25 25 25 25 25 25 25 24 24 24 24 24 25 25 25 24 24 24 23 22 19 18 17 18 18 18 18 17 17 18 18 20 22 26 27 26 26 27 28 29 30 30 28 27 28 29 30 32 33 31 29 30 31 31 33 34 35 35 33 32 32 33 34 37 39 40
27 29 28 25 23 21 21 24 28 31 31 30 29 28 26 25 25 25 26 27 27 26 25 25 25 25 24 24 23 23 23 24 24 25 25 25 25 25 25 23 20 19 20 19 19 19 18 18 18 18 18 19 22 25 26 26 27 28 29 30 31 30 30 32 33 33 32 32 31 31 32 34 34 35 35 35 35 35 35 35 36 38 39 41 43
29 28 24 19 17 16 16 19 23 26 28 29 28 28 27 26 26 27 28 28 27 26 25 25 25 25 24 23 23 23 23 23 23 23 24 25 26 26 26 25 23 22 22 22 21 21 20 20 19 19 19 20 21 22 22 23 23 24 25 27 29 32 33 34 35 36 36 36 36 37 38 39 39 39 38 38 38 39 39 41 42 43 45 47 49
26 25 22 19 18 18 18 19 23 25 27 28 27 27 27 26 27 28 28 27 27 26 26 25 24 24 24 24 24 23 23 23 24 24 24 25 26 26 26 26 25 23 23 23 23 23 22 21 21 21 22 22 23 22 22 22 21 21 22 22 24 28 31 32 33 34 34 34 35 36 38 40 42 42 41 40 41 42 43 44 46 47 49 51 50
22 23 22 21 20 20 20 22 24 26 28 28 28 27 27 27 27 27 27 27 27 27 26 26 25 25 25 25 25 25 25 25 25 25 26 26 27 27 27 27 27 25 23 22 23 24 24 24 23 23 24 26 26 26 26 26 24 23 24 23 23 25 27 30 32 34 34 34 34 34 35 37 39 40 40 41 42 41 40 39 41 44 47 48 48
23 24 23 22 23 23 23 24 25 26 27 28 28 28 28 28 28 27 27 27 28 28 28 28 27 27 26 26 26 27 27 27 26 26 26 26 27 27 27 27 27 26 25 23 22 23 24 25 25 25 25 26 27 26 25 24 24 25 27 27 27 27 27 29 31 33 34 35 36 35 36 37 38 39 40 41 42 42 41 42 44 46 47 47 47
24 25 24 24 24 24 25 25 26 27 27 27 28 28 28 28 27 27 27 27 28 28 29 29 29 28 27 26 27 27 27 27 27 27 27 26 26 26 26 27 26 27 27 27 26 25 25 25 26 26 24 23 23 24 23 24 25 28 29 30 30 31 31 31 32 33 34 36 38 39 39 40 41 42 43 44 44 45 46 47 47 46 45 45 45
26 26 26 25 25 25 25 26 27 27 27 27 27 27 26 27 27 27 28 28 28 29 29 29 29 29 29 28 28 28 28 28 28 28 28 28 28 27 27 27 27 28 28 28 29 29 28 27 27 26 25 24 24 24 24 25 26 28 29 31 31 32 32 32 32 33 33 34 37 41 43 44 44 44 44 44 44 44 43 42 41 41 42 43 44
24 23 23 23 25 25 25 26 26 26 26 26 26 25 25 26 27 28 29 29 29 28 28 28 28 28 29 29 29 29 29 29 30 29 29 30 30 30 29 29 29 30 31 31 31 31 31 30 29 29 29 30 30 30 30 31 31 31 31 31 31 31 31 31 32 33 33 34 35 38 41 43 43 43 43 43 42 42 41 41 41 42 43 43 44
Wind_Direction
242 242 245 250 254 260 267 273 279 284 284 283 279 278 279 281 284 288 293 296 297 296 294 291 290 290 290 290 289 287 287 285 285 285 286 285 282 277 274 271 268 266 262 255 251 252 254 251 243 241 239 233 234 235 228 216 209 209 212 218 223 227 231 233 236 241 244 249 254 254 249 249 250 249 251 257 265 270 271 272 273 279 283 283 288
243 245 250 254 259 264 271 277 281 283 281 278 276 276 278 281 285 290 293 295 295 294 293 290 289 289 288 288 287 285 284 284 283 284 287 286 281 277 273 268 264 263 261 252 247 251 252 247 242 238 230 226 226 221 214 208 204 207 213 218 221 224 230 233 235 239 240 242 248 247 246 249 250 250 255 261 267 272 273 272 275 279 279 281 289
246 249 253 257 262 268 274 280 282 282 279 275 274 275 279 282 286 289 291 291 292 292 291 290 290 289 287 285 283 281 280 280 280 283 288 286 282 280 276 271 266 261 257 252 251 254 252 244 237 230 224 222 219 212 209 208 208 211 215 218 219 222 230 231 230 236 238 237 240 243 245 248 249 253 258 264 269 272 272 273 276 280 281 282 285
246 249 255 260 266 273 279 282 283 281 278 276 276 277 280 282 284 286 288 288 288 289 290 289 289 288 286 283 280 279 277 277 277 280 285 283 279 278 276 272 267 262 258 256 256 255 247 238 230 227 224 222 218 214 211 210 211 215 218 220 222 224 231 233 231 234 236 237 240 244 248 249 250 255 261 267 270 270 270 273 275 279 283 284 284
247 251 258 265 271 277 281 283 283 280 278 278 278 279 280 281 282 284 285 286 287 289 289 289 287 286 285 282 280 279 277 276 275 275 279 280 277 275 275 272 265 261 256 255 256 249 238 229 225 226 226 224 222 215 210 211 213 217 222 225 227 230 232 235 236 235 235 238 239 241 246 249 252 256 260 266 268 268 270 271 272 277 279 280 282
250 256 263 270 276 279 282 283 283 280 278 278 277 277 277 278 280 282 284 287 290 292 291 290 287 285 282 279 278 278 276 275 274 273 273 274 274 272 274 274 268 260 255 252 250 241 231 225 224 227 225 224 221 212 207 210 214 219 225 229 234 235 236 239 239 239 239 238 236 239 246 249 250 254 259 260 261 264 268 268 269 274 276 277 277
254 261 268 275 280 282 283 282 281 278 275 274 273 274 275 277 280 282 287 290 293 294 292 291 289 286 282 279 276 275 275 274 272 272 271 269 269 268 270 276 274 266 258 252 246 238 231 225 224 225 220 216 212 207 209 213 218 225 229 233 238 238 240 244 244 244 245 243 241 242 248 252 251 254 257 257 258 262 265 267 269 272 273 273 270
258 266 273 280 283 283 282 278 274 270 269 269 269 272 275 278 281 284 287 289 291 290 289 289 288 286 284 281 277 275 275 274 272 272 271 268 267 266 268 275 279 275 264 250 241 239 234 226 223 222 219 217 211 208 215 222 226 230 232 233 236 239 244 246 246 250 252 248 247 245 247 252 254 254 253 253 255 260 265 268 269 270 270 268 265
260 269 276 281 282 280 277 273 267 264 263 265 267 270 274 277 281 284 286 286 285 285 284 284 284 284 284 283 281 278 276 275 275 275 274 271 269 268 267 272 277 276 271 255 239 235 233 227 223 221 221 223 220 216 222 227 230 232 233 231 232 240 247 247 247 253 255 251 250 249 248 250 254 256 254 254 254 257 263 266 266 267 269 269 267
259 268 275 278 278 276 273 270 266 262 259 260 264 268 272 275 279 282 283 283 282 281 280 279 280 281 282 281 280 280 278 278 278 278 276 272 270 270 267 267 271 271 269 262 245 232 227 225 223 221 222 225 225 224 227 230 231 233 235 236 237 241 245 246 247 251 255 253 249 250 252 249 250 254 255 256 257 258 261 265 267 267 267 267 266
259 267 273 276 275 273 272 270 267 264 261 261 264 268 272 274 276 277 278 279 279 278 278 277 278 279 280 279 278 278 279 280 280 280 277 271 267 266 263 262 264 262 259 259 251 236 226 222 223 223 223 225 227 228 231 234 235 236 238 239 239 240 243 246 248 250 252 249 245 253 260 253 249 255 258 258 261 262 262 262 266 268 267 266 266
261 267 272 274 273 271 271 271 270 269 268 268 269 271 272 272 272 274 275 276 278 279 280 280 280 279 278 277 277 276 277 278 278 278 277 272 264 261 259 258 258 256 253 253 251 242 231 223 221 223 224 226 229 231 234 238 239 238 239 240 241 244 247 248 249 248 246 248 251 258 260 254 254 261 261 260 265 266 264 262 261 263 266 268 268
261 268 272 272 270 269 269 271 272 272 272 273 273 273 273 274 274 275 276 278 280 282 283 283 281 279 276 275 275 275 276 276 276 276 276 273 265 259 256 256 258 257 254 253 251 245 239 230 223 223 225 227 230 231 232 238 241 239 238 239 240 242 246 250 252 249 247 252 256 253 252 254 257 260 259 263 269 267 264 264 261 261 265 269 271
263 270 273 270 266 266 268 272 273 272 272 273 274 275 277 277 277 278 279 280 281 282 283 283 282 281 278 275 273 273 273 274 274 274 274 273 267 260 257 257 259 260 258 256 253 247 243 237 230 228 229 231 234 234 233 236 240 242 241 241 241 241 245 251 252 249 251 256 255 251 252 255 256 258 259 264 266 264 264 263 262 265 267 269 271
266 270 270 266 264 264 267 270 272 272 272 272 274 277 278 279 279 280 280 281 281 282 283 283 283 283 281 279 276 274 272 271 272 273 272 271 268 264 263 262 260 260 261 260 256 249 243 237 232 232 234 237 239 238 238 239 239 241 243 244 246 243 243 248 249 249 254 257 255 251 251 252 253 257 259 261 261 262 262 261 262 266 268 270 272
266 267 265 262 262 265 265 265 269 272 271 272 274 277 278 279 280 280 280 280 281 282 283 283 283 283 283 281 279 277 274 271 269 270 270 271 269 267 267 266 263 259 258 260 259 252 246 242 239 238 239 241 240 237 240 243 243 245 246 246 245 239 240 249 251 252 255 255 253 250 249 251 253 255 257 259 260 260 259 259 262 266 269 271 271
265 265 262 259 260 264 263 262 265 269 270 272 274 276 278 279 280 279 280 281 282 282 283 283 284 284 283 281 280 278 276 271 268 267 269 271 270 268 269 269 266 259 254 256 258 255 251 248 246 244 243 241 237 235 237 240 244 247 246 244 243 240 244 250 251 251 253 253 253 249 248 250 253 254 256 258 258 258 258 259 260 262 266 267 268
264 263 260 257 259 262 262 260 262 266 268 271 273 276 278 279 279 280 280 281 283 283 283 284 285 285 284 283 280 278 276 272 268 267 268 268 268 268 270 271 267 257 251 251 253 252 251 248 245 244 243 242 239 235 234 234 238 243 241 240 242 242 245 249 250 252 252 251 249 247 248 251 253 255 255 255 256 257 258 259 258 260 261 262 266
263 262 259 256 257 259 258 258 260 264 268 271 274 276 278 279 279 280 281 283 284 284 285 287 288 288 287 286 283 281 278 274 270 269 269 267 265 266 268 269 264 256 251 250 252 253 251 247 245 244 244 244 242 239 236 233 236 242 241 238 240 243 245 249 251 253 251 247 245 245 249 253 254 255 255 254 255 255 256 258 260 261 261 261 263
262 261 258 256 257 256 254 256 259 263 267 270 273 275 277 279 279 280 282 284 285 286 287 289 290 290 289 288 287 285 281 277 274 273 272 267 264 263 264 265 261 256 252 250 252 255 252 248 248 247 246 246 245 243 240 237 237 241 239 237 241 243 244 246 248 248 248 246 244 244 247 251 254 256 255 254 254 254 256 259 260 262 260 260 261
260 258 257 257 256 254 253 255 258 262 265 268 272 275 278 279 280 282 284 286 287 287 288 288 289 289 290 290 289 286 282 278 275 274 272 267 263 262 261 260 258 256 251 247 251 254 252 250 249 248 247 247 246 243 239 236 234 236 238 240 244 245 243 243 244 245 247 245 243 243 245 250 254 255 255 254 254 255 256 258 259 259 259 260 261
256 255 255 256 256 255 255 257 259 261 264 268 273 277 279 280 281 283 285 286 288 288 287 286 288 290 292 293 292 289 285 278 272 270 267 262 258 259 259 258 257 255 249 247 249 251 250 250 249 249 250 248 246 243 239 236 234 236 240 241 243 245 244 241 241 244 247 246 243 243 246 249 253 254 255 254 255 256 256 256 256 256 258 261 263
253 253 253 254 256 256 256 256 258 260 264 269 273 276 278 279 280 282 283 287 290 289 287 287 291 294 296 299 298 294 288 281 272 265 261 256 253 254 255 256 256 253 247 246 248 247 246 249 249 251 250 246 244 243 242 241 240 239 242 240 241 244 242 239 242 246 247 245 244 245 248 250 252 254 256 255 255 255 255 254 254 254 257 261 265
250 250 251 253 255 255 254 254 255 259 263 267 271 274 276 278 279 281 283 287 288 288 289 293 297 301 304 308 309 304 291 282 273 262 258 256 252 250 250 252 252 247 244 246 247 244 244 247 249 251 249 243 242 242 242 245 244 242 240 240 243 246 243 242 248 250 248 246 247 249 250 251 252 254 255 256 256 255 255 254 254 256 259 263 267
247 247 248 251 253 252 250 250 251 254 258 264 269 272 274 277 280 282 285 287 287 288 293 298 302 306 310 315 320 320 307 282 270 263 260 259 254 248 245 246 245 242 243 246 244 241 243 246 247 250 248 243 241 242 242 242 243 242 241 243 245 243 239 242 248 250 251 251 251 251 252 252 254 255 256 256 256 256 256 255 256 259 262 265 267
243 244 246 248 248 246 245 245 246 248 254 261 266 270 274 278 282 284 285 286 288 292 296 300 303 307 312 319 325 329 329 314 282 267 264 265 261 251 244 240 238 239 244 246 242 240 242 245 246 248 251 248 246 245 240 236 240 245 247 245 239 230 231 242 251 253 255 256 255 255 256 256 256 257 257 257 257 257 258 258 259 262 264 266 267
241 242 243 244 242 240 241 241 243 246 252 259 264 269 274 279 282 284 285 286 291 297 301 304 305 308 313 321 327 331 334 334 321 289 268 263 262 253 242 235 234 239 246 246 241 239 240 243 244 246 248 248 247 246 241 237 240 245 245 240 233 233 241 248 253 256 257 259 260 260 260 258 258 258 258 258 258 259 260 260 262 264 266 268 268
238 238 239 239 239 239 240 241 242 246 252 257 262 268 272 277 280 283 285 288 293 300 304 307 308 310 316 321 326 330 331 330 327 313 289 267 253 246 240 236 237 244 246 241 238 238 238 239 240 242 245 244 243 242 240 239 236 230 230 234 238 245 250 251 253 256 258 260 261 261 260 258 258 259 260 261 260 262 263 264 265 266 267 268 267
234 235 236 237 238 239 241 242 243 247 251 256 261 266 270 274 278 281 285 290 294 298 303 307 310 313 317 321 325 326 325 324 321 312 301 286 268 256 249 244 244 245 241 235 237 241 240 239 240 243 246 246 241 237 234 231 227 225 232 240 246 248 249 250 253 254 256 258 259 259 256 254 253 254 256 259 260 262 264 266 266 267 268 268 267
232 232 234 237 238 238 239 241 243 247 251 255 259 263 267 272 277 283 287 290 292 293 298 305 310 313 315 320 323 322 319 319 317 310 301 292 282 272 261 252 247 242 236 235 240 245 244 243 243 243 244 243 239 235 232 227 227 232 240 243 245 246 247 249 251 251 252 254 255 255 254 253 254 255 257 259 261 261 261 262 265 267 269 268 267
233 233 234 237 238 238 238 239 242 246 250 253 257 261 266 272 278 283 285 287 288 288 293 301 306 309 313 317 319 318 317 317 317 314 306 294 284 276 266 257 250 242 237 237 240 242 242 243 244 242 240 239 236 234 233 232 233 238 242 242 243 245 246 247 248 249 250 252 255 256 256 256 257 258 260 261 261 262 263 264 266 268 267 267 267
236 235 234 237 239 239 240 240 241 246 249 251 254 259 266 272 277 281 283 284 285 286 290 295 298 302 308 312 314 314 314 315 316 315 310 300 289 280 272 265 257 247 241 239 240 239 239 241 243 241 236 237 236 233 231 234 239 243 243 242 243 243 243 244 247 251 254 255 257 258 257 258 259 260 262 262 262 263 264 265 266 266 266 267 268
238 237 236 238 241 243 244 243 243 246 248 250 254 260 266 272 276 278 280 282 283 285 288 290 291 295 299 304 308 309 310 314 314 313 310 303 295 287 279 272 264 253 246 243 241 240 240 242 244 240 234 233 235 234 233 235 239 242 243 242 242 241 240 243 248 253 255 256 257 259 260 262 263 263 263 263 263 262 262 263 264 265 266 268 270
238 238 238 241 244 247 247 246 246 247 249 251 255 261 267 271 274 276 277 278 280 283 286 287 288 291 294 298 300 301 305 309 310 311 310 304 301 298 286 274 267 257 249 246 243 242 242 241 240 236 231 230 234 235 235 236 237 239 241 242 242 242 242 245 248 251 253 255 257 260 262 264 265 265 265 264 262 261 261 261 263 265 267 269 272
238 239 241 243 246 249 250 248 247 248 250 252 256 262 266 268 270 272 273 274 277 279 281 284 286 288 290 294 296 297 299 304 305 307 311 308 309 315 306 285 274 262 251 248 246 243 240 236 231 229 228 229 233 235 236 237 237 237 239 240 241 244 246 248 249 250 252 255 257 259 261 262 263 263 262 261 260 260 260 262 264 266 269 271 273
238 239 241 242 244 248 250 250 249 248 250 252 256 261 263 263 265 268 269 271 274 276 277 280 282 284 287 289 293 295 296 300 302 303 308 311 314 319 320 308 287 266 253 250 246 239 234 229 226 228 230 232 237 238 238 239 238 236 236 239 241 244 247 249 250 251 251 253 255 256 257 258 258 258 258 258 258 259 261 264 266 268 270 271 272
237 238 242 243 244 247 252 252 250 248 250 253 256 259 261 261 262 264 265 267 271 274 277 278 279 281 284 285 287 291 293 296 299 301 305 309 313 315 315 313 301 271 252 249 246 237 232 230 229 231 232 233 238 241 241 240 238 235 236 241 244 245 247 249 250 250 250 252 254 254 254 254 256 257 256 256 257 259 262 264 266 268 269 269 270
237 238 242 244 245 248 252 252 249 247 248 251 255 258 260 260 259 260 261 262 266 271 275 279 280 281 284 286 287 289 290 291 293 297 301 305 309 313 311 311 311 290 258 249 247 242 238 236 235 236 236 233 236 240 241 238 235 235 239 244 247 247 250 252 252 251 251 254 255 255 254 254 255 256 255 256 258 261 262 264 265 266 267 268 270
236 239 242 245 246 248 251 252 249 247 248 250 254 258 261 260 258 258 258 258 262 266 271 276 281 283 286 289 291 292 291 290 289 291 295 297 302 308 309 308 308 305 286 262 250 244 240 237 237 239 240 236 235 237 236 233 233 236 241 244 246 247 249 251 253 254 254 256 257 256 256 256 256 257 257 257 259 261 261 262 263 264 266 268 269
236 240 243 245 246 247 250 252 251 249 249 250 253 257 260 259 257 256 257 258 260 264 268 272 276 280 285 289 292 292 292 291 289 288 289 291 293 298 302 305 303 302 303 290 267 252 244 241 240 242 242 239 236 233 232 234 237 239 241 243 244 245 245 246 251 256 257 256 256 257 258 258 258 259 258 257 257 259 259 261 264 266 266 266 266
235 240 243 245 246 248 250 252 252 251 249 248 251 255 257 256 256 256 257 259 262 265 269 271 273 276 280 284 288 290 290 290 290 288 287 287 289 291 294 299 301 299 298 299 292 272 255 245 243 244 245 243 239 235 236 240 242 242 243 245 245 245 243 241 245 250 253 253 255 259 258 256 254 254 255 255 255 255 257 261 264 263 262 262 264
237 241 245 246 246 247 249 251 251 251 249 248 249 253 254 255 257 259 261 264 267 270 273 274 273 274 276 280 283 286 287 288 289 289 289 287 287 289 290 291 294 296 294 293 296 293 279 262 253 252 252 247 241 241 247 249 247 247 248 248 247 245 243 238 236 241 248 253 255 255 252 249 248 249 251 253 254 255 256 258 260 259 259 262 265
240 243 246 247 247 247 247 249 249 248 247 247 247 249 252 255 259 263 267 270 272 274 275 275 275 274 274 276 279 281 283 285 286 287 289 289 288 288 289 290 289 289 290 289 289 290 288 283 276 271 267 258 249 252 260 260 256 256 257 255 251 247 244 242 237 238 246 252 251 248 245 245 248 250 250 252 254 254 254 255 259 261 264 266 268
245 247 250 252 251 250 252 252 248 245 244 245 247 249 252 255 260 266 270 272 274 275 275 275 275 274 273 273 274 276 278 280 282 283 285 288 289 289 290 291 290 289 288 288 287 285 282 281 279 277 278 273 263 261 264 264 264 267 267 264 259 253 250 250 246 242 244 249 250 248 249 251 253 253 252 254 257 258 257 258 260 262 265 267 269
242 246 252 257 257 258 260 256 250 247 246 246 248 251 253 255 261 266 269 270 271 272 273 274 274 274 274 273 272 273 275 276 278 280 282 283 285 287 288 288 288 287 287 286 286 285 283 281 279 276 275 274 269 266 266 267 270 271 268 264 261 256 255 256 255 252 251 251 251 251 251 254 256 256 257 260 262 263 261 259 260 262 264 266 269
241 247 253 256 254 253 252 250 248 248 248 247 249 252 254 257 262 265 266 268 269 270 272 274 275 276 276 276 274 273 273 274 275 277 279 280 282 284 286 287 285 283 282 282 283 283 281 278 275 273 272 269 268 268 270 272 275 273 265 260 258 257 255 255 256 256 255 254 254 254 253 255 257 259 261 264 267 266 263 261 262 264 267 269 272
245 252 254 252 249 247 245 245 245 246 248 252 256 259 260 261 263 265 267 269 271 271 273 275 277 279 280 280 279 277 275 274 275 276 277 279 280 282 283 284 285 284 282 278 276 276 276 275 272 271 270 269 268 270 272 273 272 267 263 261 260 260 258 256 256 256 256 256 258 260 260 260 260 261 263 267 270 268 264 264 268 271 273 274 274
246 252 253 250 248 246 246 246 247 248 252 255 259 262 264 265 267 268 270 272 274 275 277 278 280 281 282 283 283 281 279 277 276 275 276 277 278 280 280 281 281 283 282 278 270 265 265 267 269 269 268 268 268 268 270 268 262 258 259 260 260 259 259 258 257 258 258 260 262 265 267 266 264 264 266 270 271 269 266 269 274 277 276 274 273
250 253 253 252 252 252 252 252 253 255 257 260 263 266 269 271 273 274 275 276 277 279 281 282 282 283 283 284 284 283 282 281 279 277 276 275 275 276 277 278 278 278 279 278 275 269 264 263 264 264 265 266 268 268 267 261 255 252 254 257 258 258 258 258 259 260 261 262 262 263 264 264 264 266 270 272 272 270 270 273 277 278 276 273 272
251 251 252 252 254 254 254 256 258 260 263 266 269 272 273 275 277 278 279 279 280 281 282 284 284 285 284 284 284 283 283 283 282 281 280 278 276 274 273 273 274 274 275 276 276 275 271 267 263 258 255 255 257 261 263 261 257 255 254 255 257 259 259 259 258 258 259 260 261 261 261 263 264 266 267 268 268 269 270 273 275 275 273 272 272
242 245 248 251 253 255 257 260 262 264 267 269 271 274 276 278 280 281 282 282 281 281 282 283 283 284 284 284 283 283 282 281 281 281 280 279 278 277 275 273 272 271 271 272 271 271 269 267 262 256 253 253 254 255 256 259 261 262 263 262 262 261 261 260 259 259 260 261 261 260 261 262 263 263 263 263 265 268 270 272 273 274 273 273 274
Height
5819 5819 5820 5821 5821 5822 5823 5823 5823 5823 5823 5823 5822 5822 5822 5822 5822 5822 5822 5821 5820 5819 5819 5818 5817 5816 5815 5815 5814 5814 5812 5811 5811 5810 5809 5808 5806 5804 5803 5803 5803 5803 5802 5803 5803 5803 5803 5803 5803 5803 5804 5805 5804 5804 5807 5808 5809 5810 5812 5813 5814 5815 5816 5817 5817 5817 5818 5819 5819 5819 5819 5819 5819 5819 5819 5819 5820 5820 5820 5820 5821 5821 5821 5821 5821
5817 5817 5818 5819 5820 5820 5821 5821 5821 5821 5821 5821 5820 5820 5820 5820 5820 5820 5819 5818 5817 5817 5816 5816 5815 5814 5813 5813 5812 5812 5811 5810 5809 5808 5807 5806 5805 5802 5801 5801 5801 5801 5801 5801 5801 5801 5801 5801 5801 5801 5802 5803 5802 5803 5805 5807 5807 5808 5810 5812 5812 5813 5815 5816 5816 5816 5816 5818 5818 5818 5818 5818 5818 5818 5818 5819 5819 5819 5819 5819 5820 5820 5820 5820 5820
5815 5816 5816 5817 5818 5818 5819 5819 5819 5819 5818 5818 5818 5818 5818 5818 5817 5817 5817 5816 5815 5814 5813 5813 5813 5812 5811 5811 5810 5809 5809 5808 5807 5806 5805 5804 5803 5801 5800 5799 5799 5799 5799 5799 5799 5799 5799 5799 5799 5800 5800 5800 5800 5801 5803 5805 5805 5807 5809 5810 5811 5812 5814 5815 5815 5815 5815 5816 5817 5816 5817 5817 5817 5817 5817 5818 5818 5818 5818 5818 5819 5819 5819 5819 5819
5813 5814 5814 5815 5816 5816 5817 5817 5817 5816 5816 5816 5816 5816 5816 5815 5815 5814 5814 5813 5812 5812 5811 5810 5810 5809 5809 5808 5808 5807 5806 5806 5805 5804 5803 5802 5801 5799 5798 5797 5796 5797 5797 5797 5796 5796 5797 5797 5798 5798 5799 5799 5799 5800 5802 5803 5804 5805 5807 5808 5810 5811 5812 5812 5813 5813 5813 5814 5815 5816 5816 5815 5815 5816 5816 5816 5817 5817 5817 5817 5818 5818 5818 5818 5818
5811 5812 5813 5813 5814 5814 5815 5815 5815 5814 5814 5813 5813 5813 5813 5812 5812 5811 5811 5810 5810 5809 5808 5808 5807 5807 5806 5805 5804 5804 5803 5802 5802 5802 5801 5800 5799 5798 5797 5796 5795 5794 5794 5794 5794 5794 5795 5795 5796 5796 5797 5797 5798 5799 5800 5801 5802 5804 5805 5807 5808 5808 5809 5811 5812 5812 5812 5813 5813 5814 5814 5814 5814 5815 5815 5815 5815 5815 5816 5816 5817 5816 5816 5816 5816
5809 5810 5810 5811 5811 5812 5813 5813 5813 5812 5812 5811 5811 5810 5810 5810 5809 5808 5808 5807 5807 5806 5805 5805 5804 5803 5803 5802 5801 5800 5800 5799 5799 5799 5799 5798 5797 5796 5795 5794 5793 5792 5791 5791 5791 5792 5793 5794 5794 5795 5795 5796 5796 5797 5798 5799 5801 5802 5804 5805 5806 5806 5808 5809 5811 5811 5811 5811 5811 5811 5812 5812 5813 5813 5814 5815 5814 5814 5815 5815 5815 5815 5815 5815 5815
5806 5807 5808 5808 5808 5809 5810 5811 5811 5810 5810 5809 5808 5808 5807 5807 5806 5806 5805 5805 5804 5803 5802 5801 5801 5800 5800 5799 5798 5797 5797 5796 5796 5795 5795 5795 5795 5794 5793 5792 5791 5790 5789 5789 5789 5790 5791 5792 5792 5793 5794 5794 5795 5796 5796 5798 5799 5801 5802 5803 5804 5805 5806 5807 5808 5809 5809 5809 5810 5811 5811 5811 5812 5813 5814 5814 5813 5813 5813 5813 5813 5813 5813 5813 5813
5804 5804 5805 5805 5806 5807 5807 5808 5808 5808 5808 5807 5806 5806 5805 5804 5803 5803 5802 5802 5801 5800 5799 5798 5797 5797 5797 5796 5796 5795 5794 5793 5793 5792 5792 5792 5792 5792 5791 5790 5789 5789 5787 5787 5788 5788 5789 5790 5791 5791 5792 5793 5794 5795 5796 5797 5798 5800 5801 5801 5802 5803 5804 5805 5806 5806 5807 5807 5809 5810 5810 5810 5811 5812 5812 5813 5812 5812 5811 5811 5812 5811 5811 5812 5812
5801 5802 5802 5803 5804 5804 5805 5805 5806 5805 5805 5804 5804 5803 5803 5802 5801 5800 5800 5799 5798 5798 5797 5796 5795 5795 5794 5794 5793 5793 5792 5791 5790 5789 5789 5788 5788 5789 5788 5788 5787 5787 5786 5786 5786 5786 5787 5788 5789 5790 5791 5792 5792 5793 5794 5795 5797 5798 5799 5799 5800 5801 5802 5803 5804 5805 5805 5806 5807 5808 5809 5809 5810 5810 5811 5811 5811 5811 5810 5810 5810 5811 5810 5811 5811
5799 5800 5800 5801 5801 5802 5802 5802 5803 5803 5803 5802 5802 5801 5800 5799 5798 5797 5797 5796 5795 5795 5794 5794 5793 5793 5792 5792 5791 5790 5789 5788 5787 5786 5786 5786 5785 5785 5786 5785 5785 5785 5785 5784 5784 5784 5785 5786 5788 5789 5790 5790 5790 5791 5792 5793 5795 5796 5797 5798 5799 5800 5801 5802 5803 5803 5803 5804 5805 5806 5806 5807 5807 5808 5809 5809 5809 5809 5809 5809 5809 5809 5810 5810 5810
5797 5797 5798 5799 5799 5799 5799 5799 5799 5799 5800 5799 5799 5798 5797 5797 5796 5795 5794 5793 5792 5792 5792 5792 5791 5791 5790 5790 5789 5788 5787 5785 5784 5783 5783 5784 5783 5782 5782 5783 5783 5782 5782 5782 5782 5783 5783 5784 5786 5787 5788 5788 5788 5789 5790 5791 5792 5794 5795 5796 5797 5798 5799 5800 5801 5801 5801 5802 5803 5804 5804 5804 5805 5805 5806 5806 5807 5807 5808 5808 5807 5807 5808 5808 5808
5794 5795 5795 5796 5796 5796 5796 5796 5796 5796 5796 5796 5796 5795 5795 5794 5793 5792 5791 5790 5789 5789 5789 5789 5789 5788 5788 5787 5786 5785 5784 5783 5781 5780 5779 5780 5780 5780 5780 5780 5780 5780 5780 5779 5780 5781 5781 5782 5783 5785 5786 5786 5786 5787 5788 5789 5790 5792 5793 5794 5795 5796 5797 5798 5799 5798 5799 5800 5802 5803 5802 5801 5802 5803 5803 5803 5804 5805 5805 5806 5806 5806 5806 5806 5806
5791 5792 5793 5793 5793 5793 5793 5793 5793 5793 5793 5793 5792 5792 5792 5791 5790 5789 5788 5788 5787 5786 5786 5786 5786 5785 5784 5784 5783 5782 5781 5780 5778 5776 5776 5776 5777 5777 5777 5777 5777 5778 5777 5777 5779 5780 5780 5780 5781 5782 5783 5784 5784 5784 5786 5787 5788 5789 5791 5791 5793 5793 5795 5796 5796 5796 5797 5799 5800 5801 5800 5800 5800 5801 5801 5802 5803 5803 5803 5804 5804 5805 5804 5804 5804
5788 5789 5790 5790 5791 5791 5790 5790 5790 5790 5790 5790 5790 5789 5789 5788 5788 5787 5786 5785 5784 5783 5783 5783 5782 5781 5780 5780 5779 5778 5777 5776 5775 5773 5772 5773 5774 5774 5775 5775 5775 5776 5775 5775 5777 5778 5778 5779 5780 5781 5782 5782 5782 5782 5783 5785 5786 5787 5788 5789 5790 5791 5792 5793 5793 5794 5796 5797 5798 5798 5798 5798 5798 5798 5800 5800 5801 5801 5801 5801 5802 5802 5802 5802 5802
5786 5786 5787 5787 5788 5788 5788 5788 5787 5787 5787 5787 5787 5787 5786 5786 5785 5784 5783 5782 5781 5780 5780 5779 5779 5778 5776 5775 5775 5774 5773 5773 5771 5769 5768 5770 5771 5771 5772 5773 5774 5773 5773 5773 5775 5777 5777 5778 5778 5779 5779 5779 5780 5780 5780 5782 5784 5785 5786 5786 5787 5788 5789 5790 5791 5793 5794 5796 5796 5796 5796 5797 5796 5797 5798 5798 5798 5798 5798 5799 5800 5800 5800 5800 5800
5783 5783 5784 5784 5785 5785 5785 5785 5785 5785 5784 5784 5784 5784 5784 5783 5782 5781 5780 5779 5778 5777 5777 5776 5775 5774 5772 5771 5770 5770 5769 5769 5767 5764 5764 5766 5768 5768 5768 5771 5772 5772 5772 5772 5773 5775 5776 5776 5776 5776 5776 5776 5777 5778 5779 5780 5781 5782 5784 5784 5784 5786 5788 5789 5789 5790 5792 5793 5794 5795 5795 5795 5795 5795 5796 5796 5796 5796 5796 5797 5798 5799 5799 5799 5798
5780 5780 5781 5781 5782 5782 5782 5782 5782 5782 5782 5782 5782 5782 5781 5780 5779 5778 5777 5776 5775 5774 5773 5772 5770 5769 5767 5766 5765 5764 5764 5764 5762 5760 5760 5763 5765 5764 5765 5768 5770 5770 5770 5770 5771 5772 5773 5773 5774 5773 5773 5773 5774 5776 5777 5778 5779 5780 5781 5782 5782 5784 5786 5787 5787 5788 5790 5791 5791 5792 5792 5792 5793 5793 5793 5793 5793 5793 5794 5795 5796 5797 5797 5797 5797
5777 5777 5778 5778 5779 5779 5779 5779 5779 5779 5779 5779 5779 5779 5778 5777 5776 5775 5774 5773 5771 5770 5769 5767 5766 5765 5763 5761 5760 5759 5758 5758 5757 5756 5757 5760 5760 5760 5762 5764 5766 5766 5767 5768 5769 5770 5770 5770 5770 5770 5770 5771 5772 5773 5774 5776 5777 5778 5779 5780 5781 5782 5783 5784 5784 5786 5787 5788 5788 5789 5789 5789 5790 5790 5790 5790 5790 5791 5791 5792 5794 5795 5796 5796 5795
5773 5774 5775 5775 5776 5776 5776 5776 5776 5776 5776 5777 5776 5776 5775 5774 5773 5772 5770 5769 5768 5766 5765 5763 5762 5760 5758 5756 5754 5754 5753 5752 5752 5752 5754 5756 5756 5756 5758 5760 5761 5762 5764 5765 5766 5766 5767 5767 5767 5766 5767 5768 5769 5770 5771 5773 5775 5776 5776 5777 5779 5780 5781 5782 5783 5783 5784 5785 5786 5787 5787 5787 5787 5787 5788 5788 5788 5788 5789 5790 5791 5793 5793 5793 5793
5770 5771 5771 5772 5772 5773 5773 5773 5773 5773 5773 5774 5773 5773 5772 5771 5770 5769 5767 5766 5764 5762 5761 5759 5757 5756 5754 5752 5750 5749 5748 5747 5747 5747 5749 5750 5751 5752 5754 5756 5758 5759 5761 5762 5763 5763 5764 5764 5764 5764 5764 5765 5766 5767 5769 5771 5773 5773 5773 5774 5776 5778 5780 5780 5780 5780 5781 5783 5784 5784 5784 5785 5785 5785 5785 5785 5785 5786 5787 5788 5789 5790 5791 5791 5791
5766 5767 5767 5768 5769 5770 5770 5770 5770 5770 5770 5770 5770 5770 5769 5768 5767 5765 5764 5762 5760 5758 5757 5756 5754 5752 5751 5748 5746 5745 5743 5742 5742 5742 5743 5745 5746 5748 5750 5752 5754 5756 5757 5759 5760 5761 5761 5761 5761 5761 5761 5762 5763 5764 5766 5767 5769 5769 5770 5771 5773 5776 5777 5777 5776 5777 5778 5780 5781 5781 5781 5782 5782 5782 5782 5782 5783 5784 5785 5786 5787 5788 5789 5789 5789
5762 5763 5764 5765 5765 5766 5766 5767 5767 5767 5767 5767 5767 5767 5766 5764 5763 5762 5760 5758 5756 5755 5754 5753 5752 5750 5748 5745 5743 5740 5738 5737 5737 5737 5739 5740 5741 5743 5745 5747 5750 5752 5754 5756 5757 5758 5759 5759 5759 5758 5759 5760 5761 5761 5762 5763 5764 5766 5768 5769 5770 5773 5774 5774 5774 5775 5776 5776 5777 5778 5778 5779 5779 5779 5779 5780 5781 5782 5783 5784 5785 5786 5787 5787 5787
5758 5759 5761 5761 5761 5762 5763 5763 5763 5764 5764 5764 5764 5763 5762 5761 5760 5758 5757 5756 5754 5752 5751 5750 5749 5748 5745 5743 5740 5737 5734 5733 5733 5734 5735 5736 5737 5739 5740 5743 5746 5748 5750 5752 5754 5755 5756 5756 5756 5756 5756 5757 5758 5758 5758 5759 5761 5763 5765 5766 5768 5770 5771 5772 5772 5773 5773 5773 5774 5775 5775 5776 5776 5777 5777 5778 5779 5780 5781 5782 5783 5785 5785 5785 5785
5755 5756 5757 5757 5758 5759 5759 5760 5760 5761 5761 5761 5761 5760 5759 5758 5757 5756 5755 5753 5752 5750 5750 5748 5747 5745 5743 5741 5737 5734 5732 5731 5731 5731 5732 5732 5733 5734 5736 5739 5742 5744 5747 5749 5750 5752 5753 5753 5753 5753 5753 5755 5755 5755 5755 5757 5758 5760 5762 5764 5765 5767 5768 5769 5770 5770 5770 5771 5771 5771 5772 5773 5773 5774 5775 5776 5777 5778 5779 5780 5781 5782 5782 5782 5782
5751 5753 5753 5754 5755 5755 5756 5756 5757 5758 5758 5758 5758 5757 5756 5755 5754 5753 5752 5751 5750 5749 5748 5747 5745 5743 5741 5739 5736 5733 5731 5729 5729 5729 5729 5729 5730 5731 5733 5736 5738 5741 5743 5745 5747 5748 5749 5750 5750 5750 5751 5752 5753 5752 5753 5754 5754 5756 5758 5761 5763 5765 5766 5766 5767 5767 5767 5768 5768 5768 5769 5770 5771 5772 5773 5774 5775 5776 5777 5778 5779 5779 5779 5779 5779
5748 5749 5750 5750 5751 5752 5753 5753 5754 5755 5755 5755 5754 5754 5753 5752 5751 5751 5750 5749 5748 5747 5746 5745 5743 5742 5740 5738 5735 5732 5730 5728 5727 5727 5727 5727 5728 5729 5730 5733 5735 5738 5740 5742 5743 5745 5746 5747 5748 5749 5749 5750 5751 5750 5749 5750 5751 5753 5755 5757 5760 5762 5762 5762 5763 5764 5764 5765 5765 5766 5767 5768 5769 5770 5771 5771 5772 5773 5774 5775 5775 5776 5776 5776 5776
5745 5746 5747 5747 5748 5749 5749 5750 5751 5752 5752 5752 5751 5751 5750 5750 5749 5748 5748 5747 5746 5745 5744 5743 5741 5740 5739 5737 5735 5732 5730 5728 5727 5726 5726 5726 5727 5727 5729 5731 5733 5735 5737 5739 5740 5741 5742 5743 5744 5746 5746 5747 5748 5747 5746 5747 5749 5751 5752 5753 5756 5758 5759 5759 5760 5760 5761 5762 5763 5764 5765 5766 5767 5768 5769 5769 5770 5770 5771 5772 5772 5773 5773 5773 5773
5741 5743 5744 5744 5745 5746 5746 5747 5748 5748 5748 5748 5748 5748 5748 5747 5746 5746 5745 5745 5744 5743 5742 5741 5739 5738 5737 5735 5733 5731 5730 5728 5727 5726 5726 5726 5726 5727 5728 5730 5732 5734 5735 5736 5737 5738 5739 5740 5740 5742 5743 5744 5744 5744 5743 5745 5747 5749 5750 5751 5753 5754 5755 5756 5757 5758 5759 5760 5761 5762 5763 5764 5766 5767 5767 5767 5767 5768 5768 5768 5769 5769 5770 5770 5770
5739 5740 5741 5741 5742 5743 5743 5744 5745 5745 5745 5745 5745 5745 5745 5745 5744 5744 5743 5742 5742 5741 5741 5740 5738 5736 5735 5734 5732 5730 5729 5728 5726 5726 5725 5725 5726 5726 5727 5729 5730 5731 5732 5733 5733 5735 5736 5737 5737 5739 5740 5741 5741 5741 5742 5743 5745 5747 5748 5749 5750 5751 5752 5753 5754 5755 5757 5758 5759 5761 5762 5763 5764 5764 5764 5764 5764 5766 5766 5766 5765 5765 5766 5766 5767
5736 5737 5737 5738 5739 5740 5740 5741 5742 5742 5742 5743 5743 5743 5743 5743 5742 5742 5741 5740 5740 5739 5739 5738 5737 5735 5734 5733 5732 5730 5728 5727 5726 5725 5724 5724 5725 5726 5726 5726 5727 5728 5729 5730 5730 5731 5733 5734 5734 5736 5736 5737 5738 5739 5740 5741 5743 5744 5746 5746 5747 5748 5749 5751 5752 5753 5754 5756 5757 5758 5759 5760 5760 5761 5761 5761 5761 5762 5763 5763 5762 5762 5762 5763 5763
5733 5733 5734 5735 5736 5737 5737 5738 5739 5739 5740 5740 5740 5740 5740 5740 5740 5740 5739 5738 5738 5738 5737 5736 5735 5734 5733 5732 5731 5729 5728 5726 5725 5724 5724 5723 5723 5723 5723 5723 5724 5724 5725 5726 5726 5728 5730 5730 5731 5732 5733 5734 5736 5737 5738 5739 5740 5741 5742 5743 5744 5745 5747 5749 5750 5750 5752 5753 5755 5756 5756 5757 5757 5757 5758 5758 5758 5758 5759 5759 5759 5759 5759 5759 5760
5730 5730 5731 5732 5733 5734 5734 5735 5736 5737 5737 5737 5738 5738 5738 5738 5738 5738 5737 5737 5736 5736 5735 5734 5733 5732 5732 5731 5730 5728 5727 5726 5725 5724 5723 5722 5721 5721 5721 5721 5721 5721 5721 5722 5724 5725 5726 5727 5728 5729 5730 5731 5733 5734 5735 5736 5737 5739 5739 5740 5741 5743 5745 5746 5747 5748 5749 5750 5751 5752 5753 5753 5754 5754 5755 5755 5755 5755 5755 5755 5755 5755 5756 5756 5757
5727 5727 5728 5729 5730 5731 5731 5732 5733 5734 5734 5735 5736 5736 5736 5736 5736 5736 5735 5735 5734 5734 5733 5732 5731 5730 5730 5729 5729 5727 5726 5725 5724 5723 5722 5720 5719 5719 5719 5718 5718 5718 5718 5719 5721 5722 5723 5724 5726 5727 5728 5729 5731 5732 5733 5734 5735 5736 5737 5738 5739 5741 5742 5743 5744 5745 5746 5747 5748 5749 5749 5750 5750 5751 5751 5751 5751 5751 5751 5752 5752 5752 5752 5752 5753
5723 5724 5726 5727 5727 5728 5728 5729 5730 5731 5732 5732 5733 5733 5733 5734 5734 5733 5733 5732 5732 5731 5731 5731 5730 5729 5728 5728 5727 5726 5725 5724 5723 5722 5720 5719 5718 5717 5717 5716 5716 5716 5716 5717 5718 5719 5721 5722 5723 5724 5726 5727 5728 5729 5730 5731 5733 5734 5734 5735 5737 5738 5739 5740 5741 5742 5743 5744 5745 5745 5746 5746 5747 5747 5747 5747 5747 5748 5748 5748 5748 5749 5749 5749 5749
5720 5722 5723 5723 5724 5725 5726 5726 5727 5728 5729 5729 5730 5730 5731 5731 5731 5731 5730 5730 5729 5729 5729 5729 5728 5727 5727 5726 5726 5725 5724 5723 5721 5720 5719 5718 5717 5716 5715 5715 5715 5715 5715 5715 5716 5717 5718 5720 5721 5722 5723 5724 5726 5727 5728 5729 5730 5731 5732 5733 5735 5736 5736 5737 5738 5739 5740 5740 5741 5742 5742 5743 5743 5743 5743 5744 5744 5744 5745 5745 5745 5745 5746 5746 5746
5718 5719 5720 5720 5721 5722 5723 5723 5724 5725 5726 5726 5727 5727 5728 5728 5728 5728 5728 5728 5727 5727 5727 5727 5727 5726 5725 5725 5724 5724 5723 5721 5720 5719 5718 5717 5716 5715 5714 5714 5714 5714 5714 5714 5715 5715 5716 5717 5719 5720 5721 5723 5724 5724 5725 5726 5727 5729 5729 5730 5732 5733 5733 5734 5734 5735 5736 5737 5737 5738 5739 5739 5739 5739 5740 5740 5741 5741 5741 5742 5742 5742 5743 5743 5742
5715 5716 5717 5717 5718 5719 5720 5720 5721 5722 5722 5723 5724 5724 5724 5725 5725 5725 5725 5725 5725 5724 5724 5725 5725 5724 5724 5723 5723 5722 5721 5720 5719 5717 5716 5715 5715 5714 5713 5713 5712 5712 5713 5713 5713 5714 5714 5715 5717 5718 5719 5722 5722 5721 5722 5724 5725 5726 5727 5728 5729 5730 5730 5730 5731 5732 5732 5733 5734 5734 5735 5736 5736 5736 5736 5737 5737 5737 5738 5738 5739 5739 5739 5739 5739
5711 5713 5713 5714 5715 5716 5716 5717 5718 5718 5719 5720 5720 5721 5721 5722 5722 5722 5723 5723 5723 5722 5722 5722 5722 5722 5722 5721 5721 5721 5720 5719 5718 5717 5715 5714 5713 5713 5712 5712 5711 5711 5711 5711 5712 5713 5713 5713 5714 5715 5717 5720 5719 5717 5719 5721 5722 5723 5724 5725 5726 5727 5727 5727 5728 5728 5729 5729 5730 5731 5731 5732 5732 5732 5733 5733 5733 5734 5734 5735 5735 5735 5735 5735 5735
5708 5709 5710 5711 5712 5712 5713 5714 5714 5715 5716 5716 5717 5717 5718 5718 5719 5719 5719 5720 5720 5720 5720 5719 5719 5719 5719 5719 5719 5718 5718 5717 5716 5716 5715 5714 5713 5712 5711 5710 5710 5710 5710 5710 5711 5711 5711 5711 5712 5713 5714 5716 5716 5715 5716 5717 5719 5720 5721 5722 5723 5723 5724 5725 5725 5725 5726 5726 5727 5727 5727 5728 5728 5729 5729 5730 5730 5730 5731 5731 5732 5732 5732 5732 5731
5705 5706 5707 5708 5708 5709 5710 5710 5711 5712 5712 5713 5713 5714 5715 5715 5715 5715 5716 5716 5717 5717 5717 5717 5717 5716 5716 5716 5716 5716 5715 5715 5714 5714 5713 5713 5712 5711 5710 5710 5709 5709 5709 5709 5709 5709 5709 5709 5710 5711 5712 5712 5713 5713 5713 5714 5715 5717 5717 5718 5719 5720 5722 5723 5722 5721 5722 5723 5723 5723 5724 5724 5724 5724 5725 5726 5726 5726 5727 5728 5728 5728 5728 5728 5727
5702 5703 5703 5704 5705 5705 5706 5707 5708 5708 5709 5709 5710 5711 5711 5712 5712 5712 5713 5713 5714 5714 5714 5715 5714 5714 5714 5714 5713 5713 5712 5712 5712 5712 5711 5711 5710 5710 5709 5708 5708 5708 5707 5707 5707 5707 5707 5707 5708 5708 5709 5709 5710 5710 5711 5711 5712 5713 5714 5714 5715 5716 5719 5721 5720 5718 5718 5719 5720 5720 5720 5720 5720 5720 5721 5721 5721 5722 5723 5724 5724 5724 5723 5723 5723
5699 5699 5700 5700 5701 5702 5702 5703 5704 5705 5705 5706 5707 5707 5708 5709 5709 5709 5710 5710 5710 5711 5711 5711 5711 5712 5712 5711 5711 5710 5710 5709 5709 5709 5709 5708 5708 5708 5707 5707 5707 5707 5706 5706 5705 5705 5705 5705 5705 5705 5706 5707 5707 5708 5709 5709 5710 5710 5711 5711 5712 5713 5714 5716 5716 5715 5715 5715 5716 5716 5716 5716 5716 5716 5716 5717 5717 5718 5719 5719 5719 5719 5718 5718 5718
5695 5695 5696 5696 5697 5698 5698 5699 5700 5700 5702 5702 5703 5704 5705 5706 5706 5706 5707 5707 5707 5707 5707 5708 5708 5708 5708 5709 5708 5708 5707 5707 5706 5706 5706 5705 5705 5705 5705 5705 5705 5705 5704 5704 5704 5703 5703 5703 5703 5703 5703 5704 5705 5706 5706 5706 5707 5707 5708 5708 5708 5709 5710 5711 5713 5713 5712 5711 5712 5711 5711 5712 5712 5712 5712 5713 5713 5714 5715 5715 5715 5714 5713 5713 5713
5692 5691 5692 5693 5694 5694 5695 5695 5696 5697 5698 5699 5700 5701 5702 5703 5703 5703 5703 5703 5703 5703 5704 5704 5704 5704 5705 5705 5705 5705 5705 5704 5704 5703 5703 5702 5702 5702 5701 5701 5702 5702 5702 5702 5702 5702 5701 5701 5701 5701 5701 5702 5702 5702 5703 5703 5703 5703 5704 5704 5704 5705 5706 5707 5708 5709 5708 5708 5708 5708 5708 5708 5709 5708 5709 5709 5709 5710 5710 5710 5710 5709 5709 5708 5708
5688 5688 5689 5690 5691 5691 5692 5692 5693 5694 5695 5696 5697 5698 5699 5700 5700 5700 5700 5700 5700 5700 5700 5700 5700 5701 5701 5702 5702 5702 5702 5701 5701 5701 5700 5700 5699 5699 5698 5698 5699 5699 5699 5699 5699 5699 5699 5699 5699 5699 5699 5699 5699 5699 5699 5700 5700 5700 5700 5700 5700 5701 5702 5702 5703 5703 5704 5703 5704 5704 5703 5703 5703 5704 5705 5705 5705 5706 5705 5705 5704 5704 5703 5703 5703
5683 5684 5686 5687 5688 5689 5689 5690 5691 5692 5693 5694 5695 5695 5696 5697 5697 5697 5697 5697 5697 5697 5697 5697 5697 5697 5698 5698 5698 5699 5699 5698 5698 5698 5697 5697 5697 5696 5696 5695 5695 5696 5696 5696 5695 5695 5695 5695 5696 5696 5696 5696 5697 5697 5697 5697 5697 5697 5697 5697 5697 5697 5697 5698 5698 5698 5698 5698 5699 5699 5699 5699 5699 5700 5700 5700 5700 5700 5700 5699 5699 5698 5698 5698 5698
5681 5682 5683 5684 5685 5686 5687 5688 5688 5689 5690 5691 5692 5692 5693 5694 5694 5694 5694 5694 5693 5694 5694 5694 5694 5694 5694 5694 5694 5695 5695 5695 5695 5694 5694 5694 5693 5693 5693 5693 5692 5692 5693 5693 5693 5692 5692 5692 5692 5692 5692 5692 5693 5694 5694 5694 5694 5694 5694 5694 5694 5693 5693 5694 5694 5694 5694 5694 5694 5694 5695 5695 5695 5695 5695 5695 5695 5694 5694 5693 5693 5693 5692 5692 5692
5679 5679 5680 5682 5682 5683 5684 5685 5686 5686 5687 5688 5688 5689 5690 5691 5691 5691 5691 5691 5691 5690 5690 5690 5690 5691 5691 5691 5690 5690 5691 5691 5691 5691 5691 5690 5690 5690 5689 5689 5689 5689 5689 5689 5689 5689 5689 5689 5689 5689 5689 5689 5689 5689 5690 5691 5691 5691 5691 5691 5691 5690 5690 5690 5690 5690 5689 5689 5689 5689 5690 5690 5690 5690 5690 5690 5689 5689 5688 5688 5688 5687 5687 5686 5685
5676 5677 5678 5679 5679 5680 5681 5682 5683 5683 5684 5684 5685 5686 5686 5687 5688 5688 5688 5688 5688 5687 5687 5687 5687 5687 5687 5687 5687 5686 5686 5686 5687 5687 5687 5687 5687 5687 5686 5686 5686 5685 5685 5685 5685 5686 5686 5686 5686 5686 5686 5685 5685 5685 5686 5686 5687 5687 5686 5686 5686 5686 5686 5686 5686 5685 5685 5685 5685 5685 5685 5685 5685 5685 5685 5685 5684 5684 5683 5683 5682 5681 5680 5680 5679
5673 5674 5674 5676 5676 5677 5678 5679 5680 5680 5681 5681 5682 5682 5683 5683 5684 5684 5685 5685 5685 5684 5684 5684 5683 5683 5683 5683 5683 5683 5682 5682 5682 5682 5682 5682 5682 5683 5683 5682 5682 5682 5681 5681 5681 5681 5682 5682 5681 5681 5682 5681 5681 5681 5681 5681 5681 5681 5682 5682 5681 5681 5681 5681 5681 5681 5681 5680 5680 5680 5680 5680 5680 5680 5679 5679 5678 5678 5677 5676 5676 5675 5674 5673 5673
5670 5671 5672 5673 5673 5674 5675 5676 5677 5677 5678 5678 5679 5679 5680 5680 5680 5680 5681 5681 5681 5681 5681 5680 5680 5679 5679 5678 5679 5679 5678 5678 5678 5678 5678 5677 5677 5677 5677 5678 5678 5678 5677 5677 5677 5677 5677 5677 5677 5677 5677 5677 5677 5677 5677 5676 5676 5676 5676 5676 5676 5676 5676 5676 5676 5675 5675 5675 5675 5675 5675 5674 5674 5673 5673 5672 5672 5671 5670 5670 5669 5669 5668 5667 5666